Theta_e
307 307 307 307 307 307 308 308 307 307 307 307 307 307 307 307 307 307 307 307 307 308 308 308 308 308 309 307 306 305 304 306 311 313 313 314 316 316 314 314 311 307 309 312 317 319 316 313 318 321 319 317 316 316 317 316 317 317 317 316 315 315 315 318 320 319 319 321 321 322 322 323 323 323 330 334 334 333 335 338 338 339 339 343 348 349 351 351
307 307 307 307 307 307 307 307 307 307 307 307 307 307 307 307 307 307 307 307 307 307 308 308 308 308 308 307 305 304 305 309 313 314 312 311 313 315 314 313 310 306 308 313 317 319 317 315 318 319 317 316 316 316 316 317 317 317 318 315 315 318 318 319 321 320 321 321 322 322 323 325 324 325 332 333 333 333 336 340 339 339 341 344 349 350 351 351
307 307 307 307 307 307 307 307 307 307 307 307 307 307 307 307 307 307 307 307 307 307 307 308 308 308 307 306 305 303 307 312 314 314 314 312 311 312 312 311 308 305 307 311 314 316 316 316 318 318 316 315 316 316 315 317 317 317 318 316 317 318 320 321 321 320 320 321 321 322 326 328 326 326 329 331 334 333 335 339 338 340 342 343 347 349 350 350
307 307 306 307 307 307 307 307 307 307 307 307 307 306 306 306 306 307 307 307 307 307 307 308 308 307 306 306 303 303 309 313 313 314 313 313 312 311 311 310 308 305 306 309 311 314 316 315 317 317 316 315 315 316 316 317 317 316 317 316 318 319 320 320 320 321 320 320 321 322 327 328 327 325 326 331 334 334 334 335 336 340 340 340 346 349 349 349
306 307 306 306 306 306 307 306 306 306 306 306 306 306 306 306 306 306 307 307 307 307 307 307 307 307 306 304 302 305 310 309 311 314 310 312 312 311 311 310 308 305 306 308 310 313 315 315 316 316 316 315 315 316 316 317 317 317 317 317 318 319 319 319 320 321 320 319 320 321 325 327 328 326 326 330 333 333 332 333 336 338 339 338 344 348 348 348
306 306 306 306 306 306 306 306 306 306 306 306 305 306 306 306 306 306 306 307 307 307 307 307 306 306 305 303 302 308 312 310 314 313 308 308 308 308 308 309 308 305 307 308 311 313 315 315 315 316 316 315 315 315 316 317 317 317 318 317 318 319 319 319 320 319 320 319 320 320 321 326 328 326 327 330 330 330 330 334 335 335 337 337 343 347 347 346
306 306 306 306 306 306 306 306 306 305 306 305 305 306 305 305 306 305 306 306 306 306 306 306 306 306 304 303 306 311 312 311 314 314 311 309 306 307 305 308 307 306 309 309 310 312 313 315 314 316 315 315 315 315 316 316 317 317 317 318 318 319 319 320 320 320 319 318 319 319 319 323 326 325 327 328 327 329 330 334 334 334 335 335 339 344 346 346
306 306 306 306 306 305 305 305 305 305 305 305 305 305 305 305 305 305 306 306 306 306 306 306 306 306 304 305 311 312 311 311 312 315 314 309 308 308 306 309 307 306 310 310 310 312 313 314 314 315 315 315 315 315 316 316 317 317 317 318 319 318 318 319 320 319 318 319 319 318 319 321 322 324 326 326 327 330 330 332 333 333 334 334 334 339 344 344
306 306 306 306 305 305 305 305 305 305 305 305 305 305 306 305 305 306 305 305 305 306 306 306 306 305 303 307 312 311 312 311 313 317 315 311 312 310 308 311 309 307 311 311 311 312 313 313 314 315 315 315 315 315 316 316 316 316 317 317 318 318 317 319 320 319 319 318 318 318 319 319 320 325 325 324 327 329 331 332 332 332 334 334 335 338 342 344
306 306 306 305 305 305 305 305 305 305 305 305 305 306 306 306 305 305 305 304 305 305 306 306 305 304 305 310 311 310 312 312 314 316 316 316 318 316 313 313 311 309 310 312 312 312 313 313 314 315 315 315 315 315 316 315 316 317 317 317 318 318 317 318 319 319 318 318 318 317 318 319 321 324 324 324 326 329 332 332 331 333 333 334 336 338 343 347
306 306 306 305 305 305 305 305 305 305 305 305 306 306 306 306 305 305 305 304 304 304 305 306 305 304 307 311 312 312 310 312 315 315 315 316 318 319 316 313 313 310 310 311 312 313 313 314 315 315 315 315 315 315 315 316 317 318 317 317 317 317 317 317 318 319 318 318 318 318 318 319 320 322 323 324 325 328 331 331 332 332 333 335 336 338 345 347
306 306 305 305 305 305 305 304 304 305 305 305 305 305 305 305 305 305 305 304 303 304 305 306 304 305 309 310 311 313 312 313 315 316 316 315 316 318 316 314 315 312 311 311 312 313 313 314 315 314 314 315 314 314 315 316 317 317 317 317 316 316 317 316 317 318 318 318 318 318 317 317 318 320 322 324 325 326 330 331 331 332 333 335 336 341 346 347
306 306 305 305 305 304 304 304 304 304 305 305 305 305 305 305 305 304 304 304 304 304 305 305 305 307 310 310 311 311 312 312 313 314 315 314 315 316 316 316 316 314 312 311 313 313 313 314 314 314 315 314 314 315 316 316 316 317 317 316 315 314 315 317 317 318 319 318 319 318 313 314 318 319 323 325 324 325 330 330 330 333 333 333 338 344 345 346
306 306 305 305 305 304 304 304 304 304 304 305 305 305 305 304 304 304 304 304 304 304 304 304 304 307 310 311 310 309 310 311 310 311 312 312 314 316 316 316 316 316 314 313 313 313 313 314 314 314 314 315 315 316 316 315 316 316 316 316 316 311 312 317 317 318 319 317 319 317 311 313 318 321 326 325 325 328 329 330 332 332 333 338 343 345 344 345
306 306 305 305 304 304 304 304 304 304 304 304 304 305 305 304 303 304 304 303 303 304 304 304 305 308 311 311 310 309 309 310 310 309 309 310 311 313 315 314 315 316 314 313 314 314 314 314 314 313 314 315 315 315 315 315 316 316 313 312 313 311 312 317 318 318 318 317 319 316 312 314 318 324 327 325 327 329 329 331 330 331 338 341 342 344 344 344
305 305 305 305 304 304 304 304 304 304 304 304 304 304 303 303 302 302 302 302 302 303 303 306 308 309 310 311 311 311 310 309 309 308 308 308 309 312 315 314 314 315 314 314 314 315 314 313 313 313 313 314 314 314 315 313 313 315 313 309 310 311 311 315 316 318 318 317 319 316 314 316 319 324 325 325 327 327 330 330 330 337 340 340 341 343 343 344
305 305 305 305 304 304 303 303 304 304 304 304 303 303 302 302 302 302 303 302 302 303 304 307 310 310 310 310 310 310 310 310 309 308 308 308 308 310 314 314 313 315 314 314 316 316 315 314 314 313 313 314 313 314 314 310 309 312 313 310 311 312 311 312 314 318 318 317 318 317 317 319 319 320 321 323 324 327 329 327 336 340 338 340 341 341 342 342
305 305 305 305 304 304 303 303 304 304 304 304 302 301 302 302 302 303 304 303 303 305 306 307 310 311 311 310 309 310 311 310 309 309 308 307 308 309 314 314 313 314 314 314 316 316 315 314 313 313 312 313 313 315 313 311 310 311 311 310 310 311 311 312 313 317 318 317 318 316 317 321 322 320 320 321 323 324 326 330 339 339 338 341 341 340 341 341
305 305 305 304 304 303 303 303 304 304 304 303 301 301 302 303 303 305 306 305 305 307 306 308 310 312 312 310 310 310 311 311 309 309 308 308 308 309 314 315 313 314 314 314 315 315 315 313 312 311 311 312 314 315 315 315 315 314 313 311 309 310 311 314 316 317 318 317 317 316 317 323 324 322 321 322 322 323 332 339 338 338 340 341 341 342 341 341
305 305 305 304 304 303 303 303 303 304 303 302 302 304 304 306 307 307 307 305 305 307 306 307 310 310 309 310 310 310 311 310 310 308 308 308 308 310 314 314 313 313 313 313 314 314 314 313 311 311 311 313 314 315 316 316 316 317 315 312 311 310 311 316 318 317 318 316 315 317 321 325 326 323 323 321 322 332 339 341 340 341 342 341 342 341 339 339
305 305 304 304 303 303 302 303 304 303 303 302 303 305 305 308 309 308 308 306 305 306 306 307 309 309 309 310 310 311 310 309 309 309 309 309 308 310 313 314 313 313 313 313 313 313 313 312 311 312 312 313 315 316 317 316 316 316 315 312 311 311 312 317 320 317 318 317 314 319 324 326 326 324 326 329 333 339 340 341 341 340 340 340 339 337 336 335
304 304 304 304 303 303 303 304 303 303 302 303 303 304 305 307 307 307 308 307 306 306 305 306 307 308 309 309 311 311 310 308 308 309 309 309 308 310 313 315 314 314 313 313 314 313 312 311 312 312 313 313 315 316 317 316 316 316 316 313 310 312 315 317 319 318 318 316 314 320 326 327 329 328 332 337 338 338 338 337 337 337 337 336 335 333 333 333
303 304 304 304 303 303 303 303 303 302 302 303 304 304 305 306 306 307 307 308 309 308 306 305 305 306 308 309 310 311 310 309 308 309 310 309 308 309 312 315 315 315 314 313 313 312 311 311 312 313 313 314 315 316 317 316 316 316 315 312 309 313 314 311 316 319 318 317 316 324 327 328 330 331 334 336 335 336 335 334 334 334 333 333 332 330 330 330
303 304 303 303 303 302 303 303 302 303 303 303 304 305 305 306 306 306 307 308 308 309 309 308 306 306 307 309 310 310 310 310 309 309 310 309 308 309 312 315 315 316 315 314 314 313 312 312 313 313 313 315 315 315 317 315 314 315 316 314 311 314 314 313 316 318 317 317 318 325 326 327 328 330 334 334 333 333 332 333 332 331 331 330 329 328 328 327
303 303 303 303 303 303 303 302 302 303 304 304 304 304 305 306 306 305 307 308 307 308 308 309 308 306 307 309 309 309 309 310 310 310 310 309 309 309 311 314 315 315 315 314 314 313 313 314 314 313 313 314 314 315 316 315 312 314 317 317 315 316 316 316 317 316 313 312 317 324 324 327 329 329 333 333 332 332 331 331 331 330 330 329 328 327 327 326
303 303 303 302 302 303 302 302 303 304 305 305 305 305 304 305 305 305 307 307 307 307 306 308 309 307 307 308 308 309 309 309 310 311 310 310 310 310 311 314 315 314 315 314 314 313 314 315 314 313 313 314 314 314 315 316 312 311 315 318 318 318 316 316 316 313 309 309 317 324 322 324 327 327 331 332 332 332 331 330 329 329 329 327 328 327 326 326
302 303 303 302 302 302 302 303 304 305 305 305 305 305 304 304 305 306 308 308 308 308 307 307 308 308 307 307 308 308 308 309 310 311 311 310 310 310 311 314 315 314 315 314 313 313 315 315 314 313 313 313 313 313 316 317 312 311 317 318 317 317 315 316 315 312 312 313 317 321 320 320 322 324 328 331 331 331 330 330 329 327 327 327 327 326 326 326
302 303 302 302 302 301 302 303 305 305 304 305 305 304 305 306 306 307 309 311 311 309 308 308 308 308 306 307 308 307 308 310 309 310 312 311 310 310 310 313 315 314 315 314 311 313 316 315 315 314 312 312 312 314 317 317 314 314 318 317 316 316 316 317 315 312 314 313 311 315 318 317 318 323 328 331 332 332 330 329 328 327 327 326 326 326 325 325
302 302 302 301 301 300 301 303 304 305 304 304 304 304 305 306 307 308 310 312 312 308 309 309 308 306 306 307 307 307 308 309 309 310 312 311 310 310 310 312 315 314 314 314 313 314 316 315 316 314 312 312 313 314 316 316 316 317 317 317 316 316 316 317 316 312 312 313 311 312 316 315 315 320 328 331 331 332 331 328 327 327 326 326 326 325 325 324
302 301 301 301 301 301 302 303 304 305 304 304 303 304 305 306 308 310 311 313 311 309 309 308 307 306 306 306 306 306 307 308 309 310 311 311 310 310 311 312 314 314 314 314 314 315 315 315 316 315 313 314 315 315 316 317 317 317 317 316 315 315 316 316 316 313 311 314 312 312 315 315 315 320 326 330 330 331 331 328 327 326 325 325 325 325 324 323
302 301 300 300 302 303 304 304 304 304 304 304 304 304 305 306 308 310 312 314 310 309 308 307 307 306 306 306 306 306 307 308 309 311 312 312 310 309 310 312 313 314 314 313 314 315 315 315 315 315 314 315 316 316 317 317 317 316 316 315 312 312 313 312 312 313 313 314 311 312 316 313 315 326 331 330 330 331 329 328 327 326 325 325 324 323 323 322
300 300 299 300 302 303 304 304 304 303 304 303 304 305 305 306 309 310 312 310 309 310 308 308 308 307 307 306 306 306 306 308 308 310 312 311 310 309 309 311 313 314 312 311 312 314 314 314 314 315 316 315 316 316 316 315 315 315 313 312 311 310 311 311 310 311 313 312 311 313 314 314 321 332 334 332 331 329 328 327 326 326 325 324 323 323 322 321
299 299 299 300 302 303 303 304 304 304 304 304 305 306 306 307 309 310 311 310 310 310 309 309 309 308 307 306 306 307 306 307 308 310 311 311 310 309 309 312 313 314 313 311 311 311 313 314 313 314 316 316 317 314 311 312 313 313 311 310 310 310 312 313 311 311 311 310 312 312 312 322 333 335 332 332 330 327 327 326 325 325 324 323 322 321 321 320
299 299 300 301 302 303 303 303 304 304 305 305 306 307 308 308 310 309 310 311 310 310 310 311 309 308 308 307 307 307 307 307 308 309 310 310 309 309 310 312 314 315 315 313 312 311 311 312 313 315 315 316 317 315 313 313 313 314 314 313 311 310 312 313 310 310 311 310 310 310 315 328 338 337 331 331 328 326 326 324 324 324 322 321 320 319 319 318
298 300 301 302 303 303 303 304 304 304 304 305 306 308 308 309 309 308 310 311 311 312 311 311 310 308 308 308 309 308 307 308 309 309 310 310 309 309 310 312 314 315 315 314 313 312 310 311 314 316 316 316 316 315 316 315 313 314 315 314 312 312 312 311 311 311 312 311 309 315 327 333 335 333 330 328 327 325 324 323 322 322 320 320 319 318 318 317
300 301 302 303 303 303 304 304 304 303 304 305 306 308 308 308 308 309 311 311 311 313 312 310 310 309 308 309 309 308 307 308 309 310 310 310 310 310 310 312 314 315 315 315 314 313 311 311 315 316 316 316 315 315 316 315 313 313 313 312 313 316 315 312 312 313 313 313 313 324 337 335 333 333 329 326 326 325 323 323 322 321 320 319 319 318 317 317
301 302 302 303 303 303 304 304 304 303 303 305 306 308 308 307 308 310 312 312 312 314 314 312 309 309 309 309 308 307 307 308 310 310 310 310 310 310 311 312 313 315 315 315 315 315 313 311 314 316 315 316 315 314 315 315 315 313 310 312 315 317 315 313 313 313 313 314 316 330 339 335 335 337 331 326 327 325 323 323 321 320 319 318 318 317 317 317
302 303 303 303 303 304 304 304 304 304 304 305 306 307 307 307 309 309 311 313 313 314 315 313 310 309 310 309 308 307 307 308 309 311 311 310 310 310 311 312 313 314 314 315 316 317 314 310 313 316 315 315 316 314 313 315 316 315 313 314 315 313 311 312 313 314 314 313 318 331 336 333 333 335 331 328 327 326 324 322 321 320 318 318 318 317 317 317
302 302 303 303 303 304 304 304 304 304 305 305 305 306 306 306 308 309 310 312 312 313 316 315 312 309 310 310 308 308 307 307 309 311 311 311 311 311 311 312 312 313 313 315 316 317 316 312 311 315 316 316 315 313 312 313 315 316 315 315 314 312 310 311 311 313 313 312 317 329 334 330 330 332 330 329 327 325 324 322 321 319 318 318 318 317 317 317
303 303 304 304 304 304 304 304 304 304 305 305 305 305 306 306 308 309 310 311 311 314 316 317 314 311 311 310 310 308 307 308 309 311 311 311 311 311 311 312 312 313 314 314 315 316 316 314 312 314 315 314 313 312 312 313 313 313 312 311 312 312 311 312 311 309 311 311 314 326 334 332 331 331 329 328 327 325 324 323 321 319 318 318 317 317 317 317
303 303 306 304 303 304 304 304 304 304 304 305 305 305 305 307 308 309 310 310 311 313 315 315 315 314 313 310 310 309 308 308 310 312 312 311 311 311 312 313 313 313 313 314 315 316 316 315 313 313 313 311 312 314 314 315 314 312 311 311 311 311 310 311 311 309 309 311 310 319 332 334 330 330 330 327 326 324 323 321 320 318 318 317 317 317 317 317
303 304 307 305 303 304 304 304 304 304 305 305 305 305 305 307 308 309 310 310 311 311 313 314 314 314 314 313 311 310 308 308 309 312 312 311 312 313 312 313 314 313 314 314 314 317 318 316 314 313 313 312 314 315 313 314 315 314 313 313 313 313 310 308 310 310 309 310 309 319 332 334 328 328 330 326 324 323 321 319 319 318 317 317 317 316 316 316
303 304 307 306 305 304 304 304 305 305 305 305 305 305 305 307 308 309 310 310 311 312 313 315 314 314 314 313 312 311 309 308 310 312 313 313 313 314 313 313 314 314 314 314 315 317 319 316 314 313 313 314 314 314 314 314 314 313 313 314 314 313 312 310 311 313 313 311 314 326 335 334 327 326 327 325 323 321 319 318 318 317 317 317 316 315 315 315
304 305 307 307 307 305 305 305 305 305 305 305 305 305 305 306 308 309 309 310 311 312 313 314 314 313 313 312 312 312 310 309 310 312 313 314 313 314 314 313 314 314 314 315 316 316 317 316 314 315 315 315 315 313 313 312 312 313 314 314 314 314 315 315 314 317 317 311 313 327 335 332 326 325 325 323 321 320 319 318 317 317 317 316 316 315 315 314
305 305 305 306 306 306 306 306 306 306 307 307 306 306 306 307 308 309 309 309 310 312 314 313 313 313 312 313 313 313 312 311 311 311 313 314 313 314 314 313 315 314 313 318 319 316 316 317 315 315 315 316 315 312 311 311 311 313 315 314 314 314 315 315 313 314 314 312 318 329 332 328 325 323 322 321 320 319 319 318 317 317 317 316 316 315 314 314
306 305 304 305 305 305 306 307 307 308 309 309 307 306 307 308 309 309 309 309 310 312 313 313 313 313 313 314 313 312 312 311 311 312 312 313 314 313 314 314 313 313 318 325 323 316 316 317 316 315 314 315 314 313 313 313 312 312 314 315 316 316 316 316 314 313 313 318 328 330 328 326 324 322 321 320 319 319 318 317 317 317 316 316 316 315 314 314
306 305 304 305 305 305 306 306 307 307 309 309 308 309 310 309 309 310 309 310 311 312 313 313 313 314 314 315 315 314 313 311 311 313 313 314 314 313 314 313 313 320 326 325 320 316 315 315 316 316 317 319 319 318 317 315 312 311 313 315 316 316 318 317 316 318 317 322 330 328 325 325 324 321 320 319 318 318 317 317 317 317 316 316 315 314 313 312
306 305 305 305 305 306 306 306 306 307 308 310 310 310 311 311 311 312 312 313 312 312 314 314 314 314 315 315 315 316 315 312 312 315 314 314 314 314 315 312 313 321 323 317 315 317 316 314 316 316 318 322 322 320 320 317 315 315 314 316 317 317 319 317 316 322 324 326 329 328 325 324 322 319 318 317 316 316 316 316 316 316 316 315 314 313 312 312
307 307 307 308 308 308 308 307 309 309 309 310 311 310 312 313 313 313 313 314 315 313 314 315 314 314 314 314 316 317 317 315 314 316 317 319 318 316 315 315 315 316 316 313 315 318 316 315 318 319 319 321 319 320 322 319 315 315 313 315 316 316 320 319 316 323 329 329 328 326 325 323 320 317 316 315 314 314 315 315 315 315 314 314 313 312 311 311
308 308 307 309 311 310 310 310 311 310 310 311 311 310 312 313 313 313 313 314 315 315 315 315 314 314 314 316 317 316 317 319 319 320 323 326 326 320 315 315 316 315 313 314 316 318 316 316 320 322 321 319 318 323 326 324 321 321 320 322 323 324 328 328 324 327 330 329 326 324 323 322 318 315 314 313 313 313 313 313 314 314 314 313 313 312 310 310
309 309 308 310 312 310 310 310 310 309 309 310 310 311 312 313 313 313 313 313 314 315 315 315 316 316 317 318 319 318 318 319 320 320 322 325 326 323 317 314 315 315 314 314 316 317 316 318 323 324 322 320 320 326 328 327 327 327 327 328 328 329 331 331 329 329 329 327 324 323 322 320 317 313 312 312 312 312 313 313 313 313 312 311 311 310 310 309
309 310 310 310 311 310 309 310 309 309 309 310 312 312 313 313 312 313 313 313 312 313 313 314 317 318 319 320 321 320 319 319 320 320 320 320 321 321 319 315 314 315 315 316 317 317 317 320 324 325 323 322 323 327 327 327 328 328 326 325 327 327 328 328 328 328 326 325 323 322 320 316 313 312 311 312 312 312 312 312 312 312 311 310 309 309 309 308
Wind_Speed
9 9 9 10 10 10 9 10 10 11 11 11 11 11 11 10 11 12 13 13 14 14 14 16 17 18 18 18 19 17 18 17 17 15 17 16 14 14 10 11 9 7 10 10 11 11 12 12 13 13 11 9 7 7 10 9 7 6 5 7 7 8 10 8 3 2 2 6 5 5 10 9 10 9 3 6 7 8 9 9 10 13 16 17 19 21 21 18
9 10 10 10 10 10 10 10 10 10 10 11 10 11 11 11 11 11 13 13 14 14 15 16 17 18 17 17 17 16 18 19 19 19 22 19 15 17 14 13 11 9 13 11 12 13 11 11 12 12 9 7 7 8 9 8 7 6 5 7 7 9 10 2 5 8 6 4 3 4 7 5 10 9 5 8 9 9 9 10 10 14 18 17 18 18 18 16
10 10 10 10 10 9 9 9 10 10 10 10 11 11 11 11 12 12 12 13 14 14 15 16 16 18 17 17 16 14 17 19 17 17 21 19 18 20 18 17 13 12 16 14 13 13 12 12 12 11 9 7 8 9 9 8 7 8 7 7 8 12 10 5 8 7 8 5 3 5 3 2 10 11 6 8 10 9 9 10 10 12 16 15 15 15 15 14
10 10 10 10 9 9 9 9 10 10 10 10 11 11 11 11 12 12 12 13 14 14 15 16 17 18 17 16 14 12 15 15 10 7 8 12 19 23 22 20 16 14 16 15 14 14 14 14 12 11 9 8 8 9 8 7 6 8 7 10 9 7 8 4 5 3 6 3 2 3 5 2 7 8 9 9 8 8 8 11 13 14 16 15 14 14 13 12
11 10 10 10 9 9 9 9 10 10 10 11 11 11 11 11 11 12 13 13 13 14 15 16 18 17 16 15 11 11 11 7 0 6 8 9 15 21 23 22 19 17 17 16 16 16 16 15 13 10 9 8 9 8 8 9 7 7 9 16 14 8 9 3 5 3 4 2 2 2 8 5 4 2 7 9 7 6 5 10 16 15 15 15 14 13 12 10
11 10 10 10 10 10 10 10 11 11 12 11 12 12 12 12 11 12 12 13 14 14 15 16 17 16 15 13 9 10 8 3 5 10 10 8 10 11 14 18 19 19 17 16 16 15 15 14 12 10 8 8 11 9 8 10 9 7 9 15 14 10 8 2 5 4 2 6 4 2 4 4 6 5 6 6 5 6 8 14 17 15 16 17 14 13 11 10
11 10 10 10 10 10 11 11 12 13 13 13 13 12 12 12 12 12 12 13 14 14 15 16 17 15 15 12 8 9 9 8 5 6 6 5 8 4 5 12 18 20 18 17 17 15 13 14 13 10 9 9 11 12 10 11 11 9 9 11 10 6 8 2 5 5 6 10 5 1 3 4 9 9 5 5 4 7 14 18 16 15 17 16 13 12 10 9
11 11 11 11 10 11 11 12 13 13 14 13 13 11 11 11 11 12 11 13 13 14 15 15 16 14 13 12 9 7 9 16 13 8 4 7 9 3 3 9 17 20 19 19 18 15 13 14 14 10 9 10 10 12 11 10 11 12 11 11 8 8 9 3 4 4 8 7 3 2 4 7 9 8 6 7 7 9 12 15 14 14 15 14 13 12 10 9
11 11 11 11 10 11 12 13 13 13 13 12 12 10 10 10 11 11 11 13 13 14 14 15 16 11 9 9 8 6 9 16 13 10 5 8 10 6 4 9 16 19 18 19 19 17 13 12 14 12 11 11 11 12 11 10 9 12 14 12 8 9 10 6 3 6 7 7 5 7 11 9 5 8 8 7 9 9 10 11 12 13 14 13 12 11 9 10
12 11 11 11 11 12 12 13 13 13 13 11 11 10 10 10 10 11 11 13 13 13 14 14 14 10 9 9 8 6 6 8 9 10 7 8 10 8 7 10 16 19 18 18 19 18 14 12 13 12 12 11 11 11 10 11 7 7 13 14 10 6 7 7 6 8 7 8 10 10 14 10 4 7 9 9 9 10 11 10 10 12 13 12 11 10 9 12
12 11 11 11 11 12 12 13 13 13 12 11 11 10 9 9 10 10 11 13 14 14 14 14 13 10 11 10 8 6 2 3 5 7 7 8 10 10 10 12 15 18 18 17 18 19 17 15 13 9 9 8 10 11 10 12 8 4 8 13 13 8 7 10 9 11 10 8 11 13 13 10 7 9 8 12 11 10 13 11 9 11 12 11 11 11 10 13
13 12 11 11 12 12 12 13 13 13 12 11 11 10 10 10 10 10 11 13 14 14 13 13 12 10 12 9 10 12 6 2 2 3 6 10 11 11 11 12 15 17 18 16 17 19 18 18 16 11 9 7 8 9 7 11 11 7 7 10 12 11 10 11 12 13 12 9 11 14 10 9 11 11 8 13 12 12 12 11 10 10 12 11 11 11 12 13
14 12 11 12 12 11 12 13 13 13 12 11 11 10 10 11 11 11 12 12 12 12 12 12 11 11 11 7 12 23 19 12 7 4 4 8 11 12 11 12 14 15 17 18 17 18 18 18 16 14 11 8 7 4 4 9 11 8 7 8 9 10 9 10 12 13 13 10 12 14 8 9 13 11 10 11 11 11 12 10 9 10 11 10 10 12 13 12
15 13 12 12 12 11 12 12 13 12 12 12 10 10 10 10 12 12 12 12 11 11 11 11 10 10 8 7 16 24 25 20 16 12 10 8 10 11 12 12 12 13 16 19 18 16 16 17 15 13 10 10 8 3 4 9 9 8 8 7 8 7 8 11 12 13 13 11 15 15 7 8 14 13 13 10 10 10 10 10 9 10 10 10 12 14 13 10
15 14 12 12 12 11 11 11 12 12 11 11 10 11 11 11 12 12 12 13 13 11 10 10 10 9 6 9 17 20 22 22 18 16 15 12 12 12 12 13 13 14 16 18 18 14 15 16 13 9 8 12 11 6 6 8 8 8 8 7 8 7 9 14 15 15 14 12 16 15 7 9 14 15 14 11 9 9 9 10 10 10 13 14 13 12 11 9
16 15 13 12 11 11 11 10 10 11 10 11 11 12 12 12 12 13 13 13 13 12 9 9 10 11 5 7 11 11 17 21 19 18 16 15 15 13 12 12 13 14 14 15 14 11 12 12 9 7 9 11 10 7 7 7 7 8 8 7 9 10 8 12 15 17 17 12 15 16 10 6 12 15 13 12 12 11 8 9 10 11 16 16 12 10 9 9
17 16 14 12 11 11 10 10 10 10 10 10 12 13 13 13 14 14 14 14 12 10 11 11 10 10 8 11 10 9 15 20 21 21 18 17 16 15 13 11 11 12 12 14 12 8 7 7 6 7 9 9 8 7 7 8 8 7 8 8 9 12 10 9 14 16 18 13 13 17 12 3 11 13 13 13 13 11 10 10 12 15 15 14 12 11 10 9
17 15 14 12 12 11 9 9 9 9 9 10 13 13 11 12 14 13 12 11 10 9 11 13 10 6 7 13 14 12 15 19 21 21 20 19 18 18 14 11 11 12 12 12 11 8 7 7 7 8 8 9 9 9 8 9 10 9 9 8 9 12 13 11 14 14 18 14 12 16 13 6 11 11 11 12 11 11 10 7 14 17 15 13 12 10 9 9
16 15 14 13 12 10 9 9 9 9 9 11 13 10 7 7 9 11 11 10 8 6 6 9 11 6 3 9 18 18 15 18 19 18 21 20 19 19 15 12 12 13 12 9 10 10 8 7 8 9 9 10 11 12 12 11 13 13 12 11 10 11 13 13 15 15 18 14 11 15 11 11 11 10 10 11 11 9 6 12 15 15 14 12 11 10 9 10
16 15 14 13 11 10 9 9 9 9 9 11 12 9 6 6 6 7 10 11 11 11 9 10 17 14 13 10 13 18 16 18 19 18 21 21 19 17 14 12 12 12 11 10 11 12 9 8 10 11 11 13 15 16 16 16 15 13 12 11 13 12 11 12 16 17 17 13 12 12 10 13 10 10 9 7 7 6 14 18 14 14 13 12 13 12 12 11
17 16 14 13 11 9 9 9 9 9 9 10 13 10 8 8 3 2 7 11 15 18 18 15 16 17 20 18 8 11 11 14 17 17 20 21 19 16 12 13 13 10 12 13 11 11 11 10 11 14 15 16 16 16 17 18 17 13 11 10 12 12 10 13 17 18 17 12 11 12 13 13 9 9 8 6 10 13 16 16 14 16 14 12 13 13 12 10
17 16 14 13 11 9 9 9 10 10 10 11 13 12 12 10 7 5 3 7 13 21 22 22 19 15 19 24 13 4 6 11 14 15 19 21 18 14 12 14 13 11 13 14 10 10 11 11 13 16 16 16 15 15 17 19 18 14 9 9 10 10 9 12 16 19 16 9 10 15 14 11 10 10 10 13 13 13 15 15 14 15 14 12 11 11 11 10
17 16 14 12 10 9 8 9 10 11 12 13 16 15 15 15 11 8 6 6 9 17 20 19 20 17 17 20 11 6 9 11 13 15 19 20 16 14 14 14 14 13 14 15 12 10 9 11 15 16 15 17 16 15 17 17 13 11 9 8 8 10 10 9 13 18 15 10 11 15 14 9 10 10 11 12 11 12 14 15 14 12 13 12 11 10 10 10
16 15 13 11 9 8 8 9 10 14 16 16 20 19 17 16 9 7 7 7 8 10 16 18 17 16 17 16 11 10 10 11 12 16 20 19 15 14 14 14 15 14 14 17 18 13 11 12 15 17 17 18 17 16 16 13 9 11 11 10 9 12 15 9 11 14 13 13 12 13 12 6 8 9 8 8 9 11 10 12 13 12 12 11 11 11 10 10
15 14 12 10 8 7 7 8 12 18 17 16 21 20 18 15 8 7 6 6 8 8 13 17 14 15 19 17 13 12 11 12 12 14 21 21 17 14 12 12 11 13 16 20 19 14 12 13 15 18 17 18 18 15 15 13 8 10 13 14 13 13 16 11 14 13 10 11 10 12 8 4 6 9 10 9 8 10 9 9 10 9 10 9 10 10 9 9
14 13 10 9 8 7 7 7 11 16 14 15 20 18 15 13 7 6 6 5 7 8 12 15 11 14 19 16 13 12 11 12 13 15 21 22 19 14 11 9 8 13 16 16 13 8 11 14 16 18 18 19 18 14 15 15 9 7 11 16 17 13 15 13 17 12 9 7 9 11 7 5 8 11 12 12 10 12 10 10 8 6 8 7 7 8 7 8
14 12 10 10 9 9 8 4 8 9 10 13 14 11 12 11 5 2 4 6 6 8 14 13 10 16 20 16 15 13 9 9 12 15 19 23 20 15 13 11 9 12 12 10 9 7 11 16 16 18 18 17 15 12 14 17 11 7 11 15 16 15 16 13 17 11 8 7 10 13 11 6 7 11 15 16 12 12 11 10 9 6 7 7 7 8 7 8
12 11 9 10 10 12 11 9 12 7 5 4 6 8 8 8 5 3 4 4 2 6 12 12 12 18 19 17 20 15 8 10 12 14 18 25 21 14 13 15 13 14 14 10 9 9 12 16 16 17 16 13 12 13 15 17 12 10 12 13 15 17 16 10 15 11 9 9 9 13 13 8 6 10 14 16 14 12 11 10 9 7 8 8 8 8 8 9
10 9 9 10 10 12 14 13 15 11 5 1 6 9 7 6 3 4 4 4 3 7 10 12 13 16 16 17 20 16 12 11 12 11 17 23 22 15 11 14 15 15 17 14 11 10 12 14 15 15 14 11 14 16 16 16 12 13 14 13 13 14 13 11 11 11 9 8 9 12 15 9 6 10 13 13 12 12 11 9 8 8 9 8 8 8 8 8
9 9 9 9 10 11 12 13 17 16 11 4 5 7 5 4 3 5 6 5 5 9 9 10 12 14 17 18 17 18 17 13 11 12 14 17 20 18 11 13 14 12 14 15 14 12 12 14 13 11 12 12 13 14 14 14 14 15 16 11 11 10 9 11 8 9 7 8 11 14 17 13 7 8 12 11 11 13 13 11 9 9 9 9 8 8 8 7
8 8 8 10 11 9 8 8 11 12 10 6 6 6 4 3 5 6 7 5 4 10 10 11 14 16 20 20 15 17 19 15 13 15 13 13 16 17 12 11 12 10 11 12 12 13 14 14 11 11 13 12 11 12 13 14 15 14 13 8 8 7 7 8 5 8 7 7 12 15 17 16 8 4 7 7 10 15 16 13 13 12 10 9 7 7 7 7
8 8 9 11 12 9 7 7 5 4 5 6 8 6 4 6 6 6 6 5 3 9 11 13 15 16 21 21 16 17 18 14 14 17 15 13 13 14 13 11 9 10 11 10 11 12 12 12 12 12 14 13 12 11 12 13 13 13 12 8 9 8 6 7 7 8 8 9 13 15 16 13 3 2 7 8 10 16 16 14 15 13 11 10 8 7 6 6
8 8 9 11 12 10 10 9 6 3 1 5 7 4 4 7 7 8 9 5 6 10 11 14 16 17 20 19 15 18 18 15 15 17 16 15 13 14 16 15 14 12 10 10 11 10 10 11 14 13 11 12 14 10 9 11 11 13 12 9 10 9 7 8 8 7 8 10 11 12 12 8 3 4 10 14 15 15 15 14 14 13 11 9 8 7 6 7
8 8 9 11 11 11 11 9 6 2 1 5 5 4 6 7 7 10 11 5 6 9 10 14 16 18 20 17 15 18 16 14 17 17 16 15 13 13 15 17 20 16 9 10 10 10 11 10 13 13 10 12 15 13 11 11 10 12 11 9 9 9 8 7 7 6 7 8 10 11 6 4 5 5 9 13 14 14 14 13 13 11 10 8 7 7 7 7
8 9 11 11 12 12 12 9 5 2 3 4 3 4 7 7 6 8 8 6 4 7 10 14 16 16 17 15 16 20 16 13 17 16 14 14 12 13 14 15 19 17 11 9 8 10 12 10 12 16 14 16 17 16 13 11 10 10 10 9 9 10 8 5 6 6 3 4 8 6 1 5 6 7 9 11 13 14 13 13 13 12 10 9 7 7 6 6
7 9 11 12 12 12 12 9 6 5 5 4 5 6 8 7 6 3 3 7 4 5 8 11 15 13 13 12 14 21 19 13 16 15 11 15 15 16 16 13 17 19 14 9 6 8 11 10 13 18 17 18 18 16 16 12 9 8 9 11 10 12 10 4 6 6 1 4 5 5 6 6 6 6 9 12 13 13 13 13 13 12 11 9 8 7 6 6
9 9 10 12 14 13 12 10 9 9 6 5 6 7 7 8 5 3 6 9 7 8 8 7 12 11 12 12 11 20 21 15 17 14 10 13 14 16 18 16 18 21 18 12 7 7 10 9 13 18 16 16 16 15 18 15 10 8 9 10 9 12 12 5 4 6 5 6 4 7 10 10 7 5 8 13 13 13 13 13 13 12 11 9 8 8 7 7
8 7 7 13 16 14 13 12 11 10 6 5 8 9 8 8 6 8 9 10 10 9 8 5 9 12 13 12 11 19 20 14 15 14 11 11 11 16 19 16 18 22 20 16 9 7 10 9 11 17 16 14 14 14 14 14 15 13 9 9 8 8 9 7 4 6 7 7 4 8 10 9 6 6 11 14 15 15 13 12 13 12 10 9 9 9 8 8
7 4 4 13 16 13 14 14 12 8 5 5 7 7 7 8 9 11 10 9 10 9 7 7 7 11 13 12 12 17 19 15 13 13 11 9 10 17 19 14 16 21 22 19 11 6 9 7 7 15 17 14 11 10 11 11 15 17 11 10 9 7 7 8 6 6 7 7 6 6 7 5 4 8 14 16 15 16 14 12 12 12 11 10 9 9 8 8
6 3 2 11 15 14 14 13 10 6 5 7 7 6 7 7 7 10 11 11 10 5 4 9 9 8 12 15 14 14 16 16 14 11 10 11 11 16 20 16 15 20 23 22 14 7 7 6 5 11 15 13 9 9 12 11 12 14 12 10 9 7 7 7 7 8 8 6 6 5 5 3 3 4 13 16 15 14 13 12 12 11 11 10 9 9 8 8
3 2 2 11 14 14 13 10 7 6 6 7 7 8 8 6 7 10 13 14 11 5 7 9 9 8 8 12 14 14 14 14 14 11 9 12 11 10 16 18 16 18 19 18 14 8 5 6 5 6 11 11 11 13 15 15 10 10 9 9 10 10 8 8 8 9 9 7 6 4 4 5 4 3 4 13 14 13 12 13 12 11 11 11 10 10 9 8
1 2 4 13 16 15 11 6 6 5 6 7 8 9 6 3 7 10 13 13 11 8 7 6 7 10 9 8 10 14 14 11 13 13 9 13 14 9 15 21 19 18 15 13 14 10 4 4 6 6 9 12 14 16 17 18 15 12 11 10 10 9 9 8 8 7 7 8 6 1 4 5 4 6 3 12 13 13 13 14 13 11 11 11 10 11 10 9
1 2 6 13 14 13 8 5 6 6 6 8 11 11 6 3 6 10 11 11 9 7 5 4 7 10 9 10 9 12 16 12 12 14 11 12 15 11 15 22 20 18 15 12 12 10 4 3 6 7 8 10 13 15 17 19 18 14 13 12 9 9 9 9 7 5 3 6 5 3 4 3 4 5 6 13 14 14 12 13 13 11 11 11 11 11 10 9
2 2 4 9 11 10 7 5 5 6 7 10 13 11 7 5 7 9 11 10 8 5 3 5 7 7 8 10 11 8 12 12 12 15 12 10 13 13 16 21 21 16 13 10 9 8 5 5 7 7 7 7 10 12 14 17 15 11 11 14 13 15 15 12 8 3 2 7 7 4 4 3 2 1 9 14 15 14 13 12 13 11 11 12 11 10 10 10
1 0 3 6 8 7 6 5 5 5 6 10 12 9 7 7 8 11 12 10 9 7 3 4 7 6 7 10 11 11 11 11 10 12 12 9 10 12 16 20 19 14 13 12 10 9 6 7 6 7 8 9 9 10 9 11 11 10 11 14 17 19 19 12 6 3 3 5 3 4 6 5 4 7 13 14 14 15 14 13 12 11 12 12 10 10 10 10
2 2 4 5 5 6 5 5 6 6 6 9 9 7 8 8 8 11 12 9 8 9 5 4 7 7 8 11 10 10 11 12 11 9 11 9 8 10 14 18 20 17 16 14 12 8 5 6 8 10 9 6 5 7 10 10 11 11 11 12 15 18 18 11 4 4 5 2 5 5 13 13 9 11 13 13 14 15 14 13 12 11 12 12 11 10 10 9
3 2 6 6 5 4 6 7 8 7 6 8 6 3 6 10 9 7 6 5 6 7 6 5 7 7 7 9 8 9 11 12 13 11 12 10 8 10 14 17 19 16 13 13 12 8 3 6 12 13 9 3 3 2 7 11 11 13 15 15 14 15 16 11 2 2 3 3 5 8 17 18 14 14 14 13 13 13 12 12 12 11 11 11 11 11 11 10
3 1 3 6 5 4 6 7 8 8 8 7 5 3 7 10 8 5 3 5 6 5 5 6 8 9 9 9 6 8 11 10 13 11 12 12 11 10 13 16 15 11 11 13 12 8 3 6 11 11 9 7 4 5 6 9 12 13 15 14 14 14 13 10 4 6 5 5 8 12 16 15 14 15 15 14 13 13 12 10 10 10 11 11 12 12 11 11
3 1 2 2 1 2 4 2 2 6 8 8 7 6 7 8 7 5 5 5 5 5 6 7 8 9 11 9 4 6 10 4 10 10 7 8 11 10 11 13 10 8 12 15 11 7 4 5 9 9 9 10 9 3 7 9 13 14 16 16 16 14 7 6 6 9 13 13 16 17 15 13 12 14 14 13 12 12 10 8 8 10 12 12 12 12 11 11
2 0 2 3 2 4 6 2 3 5 7 8 8 5 6 7 7 6 6 6 4 5 8 10 9 8 7 7 5 7 8 8 2 5 3 5 4 5 7 9 8 9 14 12 8 7 5 5 7 7 8 11 10 2 9 5 2 4 5 4 3 1 6 6 2 12 16 14 16 19 17 11 10 13 14 13 11 11 11 10 9 10 11 10 10 11 11 10
4 1 0 3 2 2 5 3 2 4 4 5 5 3 5 6 7 7 8 8 8 7 7 8 8 6 6 10 7 5 5 10 6 2 6 7 2 4 7 9 10 11 13 10 7 8 6 4 4 2 5 9 9 8 14 13 11 10 10 12 13 11 9 7 4 8 13 17 17 16 12 8 9 13 15 13 12 13 13 13 10 8 10 10 10 11 11 10
4 1 1 1 1 2 3 2 2 4 2 1 3 5 6 8 9 9 8 7 9 9 8 8 8 6 5 6 5 5 6 6 6 6 6 7 2 6 8 10 12 11 10 9 6 6 6 4 3 2 4 6 7 12 16 11 8 7 7 10 9 9 7 7 9 9 10 14 11 8 9 10 13 15 15 14 14 14 13 10 8 8 10 11 10 10 10 10
Wind_Direction
312 313 313 315 314 313 310 309 310 309 307 306 308 311 313 315 315 317 317 316 317 318 318 321 319 320 318 316 317 320 329 319 305 290 253 246 243 244 233 202 226 226 191 194 212 221 208 213 226 224 229 230 224 235 234 222 226 236 227 242 241 234 245 241 225 7 91 117 106 168 181 176 175 197 163 121 145 132 120 93 86 86 80 86 93 109 121 129
307 307 309 311 311 309 308 307 307 308 305 305 307 309 310 310 313 315 315 315 315 316 317 319 319 318 317 316 319 327 331 313 291 277 259 251 238 237 233 224 238 205 184 199 215 219 212 210 215 217 225 229 218 221 227 205 208 234 226 236 238 240 245 238 43 32 46 81 71 150 186 191 169 169 173 170 150 130 135 115 102 99 94 96 104 115 123 133
304 305 307 307 307 307 307 307 305 306 305 304 305 306 309 309 312 314 315 316 313 315 316 316 318 317 317 316 321 333 327 306 285 268 258 249 228 227 231 230 230 202 195 210 223 223 222 222 212 212 223 231 225 214 214 189 193 225 229 239 232 249 257 80 61 41 46 35 58 139 196 227 158 160 186 175 147 159 163 132 128 118 111 115 119 124 129 138
300 301 303 302 303 305 305 305 304 305 303 303 304 304 309 309 308 311 315 315 312 314 315 316 317 316 317 317 321 336 320 294 279 259 233 224 216 219 226 228 227 211 208 221 237 237 232 234 224 215 223 234 230 216 212 187 188 215 222 241 232 282 300 101 97 52 55 9 18 124 202 188 142 163 176 166 161 177 173 152 144 129 124 123 125 131 134 141
294 294 297 297 298 301 301 302 302 302 303 302 302 301 306 310 307 306 310 312 312 312 314 316 315 315 317 315 321 328 309 280 332 101 131 167 194 211 222 227 227 213 213 226 239 241 235 238 235 221 224 240 232 214 216 204 203 223 225 242 251 311 317 159 151 120 84 298 348 132 212 181 111 173 172 173 189 179 165 146 134 128 129 129 132 134 134 142
288 288 290 291 293 296 297 298 299 300 303 302 301 297 296 304 306 302 305 309 312 312 315 316 314 318 316 314 318 302 275 257 72 106 129 140 159 191 210 218 221 210 212 225 231 235 230 232 236 225 219 237 242 225 214 211 210 232 233 241 256 288 290 193 148 132 118 254 240 193 241 150 144 218 196 180 189 152 116 112 123 133 128 129 134 132 139 144
282 283 283 287 289 291 293 295 297 298 299 302 303 299 290 295 301 302 303 303 307 310 312 313 314 319 320 324 308 266 242 270 284 150 157 156 148 144 184 202 206 200 209 221 222 227 224 224 229 227 222 225 242 236 217 213 215 231 244 246 247 251 265 239 125 144 205 235 227 220 328 143 179 211 181 124 90 100 109 114 128 135 126 131 132 129 142 137
276 278 278 281 285 288 292 293 296 296 298 302 301 299 292 289 296 301 301 299 303 308 311 314 314 318 327 331 304 250 227 257 250 185 189 183 175 183 175 189 193 194 207 218 216 221 222 222 224 223 227 223 233 237 222 215 218 227 245 259 242 215 238 235 109 176 201 216 217 186 212 193 193 196 148 115 99 85 105 123 131 136 133 137 133 131 139 129
269 273 274 277 281 286 290 292 295 296 299 301 299 300 296 291 294 298 294 292 300 306 310 312 312 317 320 312 289 268 246 245 218 172 180 174 186 216 199 186 187 192 207 217 217 222 220 220 224 223 229 230 230 235 226 220 219 216 229 252 254 223 222 205 184 213 194 196 197 186 201 203 191 175 147 132 142 117 111 124 133 142 135 127 122 121 126 113
264 266 270 273 277 283 287 289 292 294 298 299 297 298 296 294 293 293 292 292 299 305 308 310 312 317 308 287 260 256 255 230 178 163 180 166 177 197 209 198 186 194 209 216 218 221 222 221 222 226 237 242 243 240 227 223 223 213 221 236 250 243 219 205 207 212 207 204 191 193 202 182 157 186 157 133 148 142 132 133 143 143 128 122 119 114 102 92
261 260 263 269 273 279 282 286 290 293 296 296 296 297 295 295 291 293 294 293 296 299 304 309 312 313 300 285 250 227 181 175 164 176 198 188 185 192 212 210 191 198 210 215 219 219 223 226 225 227 233 242 256 255 238 223 224 232 227 231 236 238 221 211 214 212 212 205 186 200 201 157 162 215 178 142 156 171 153 145 157 144 129 128 121 113 95 88
257 255 256 263 270 276 279 284 287 290 293 293 292 293 292 291 289 290 291 294 295 294 301 305 309 306 291 280 244 232 226 228 181 191 207 202 208 211 215 213 200 204 213 218 219 218 223 227 230 232 222 223 242 258 257 224 220 225 227 233 225 227 228 205 210 214 203 194 188 203 197 152 188 214 158 138 165 183 156 150 165 141 125 126 116 102 90 93
253 251 251 257 266 272 278 282 284 286 289 289 289 287 286 286 283 285 290 295 291 287 292 295 300 294 282 276 246 241 249 273 277 261 234 212 218 218 217 218 212 211 216 224 222 216 222 227 233 241 240 240 229 247 290 229 221 222 219 239 221 216 225 201 207 213 201 185 185 210 202 160 196 192 132 135 175 176 150 158 165 135 127 126 108 88 81 84
250 248 248 253 261 268 276 280 282 283 285 286 286 281 278 277 278 283 288 290 289 290 290 289 290 282 269 261 259 250 250 267 272 251 241 235 228 219 214 219 225 223 219 227 229 217 218 227 237 247 252 257 244 234 261 220 211 220 211 228 227 215 210 200 206 211 207 185 184 217 220 169 190 169 141 155 177 172 158 167 165 139 126 105 85 79 80 84
246 244 245 249 255 264 273 277 279 280 281 283 281 277 275 275 278 280 283 283 284 285 286 284 265 258 272 257 261 258 245 255 262 244 234 232 230 224 210 210 223 226 219 224 232 224 214 221 231 243 243 249 256 252 243 219 199 212 212 213 222 225 207 195 200 210 212 185 182 213 226 189 183 154 151 168 170 177 174 172 167 137 106 88 83 84 86 90
242 241 243 246 252 263 269 270 274 274 276 280 278 276 276 280 283 281 281 280 277 271 270 272 236 225 264 266 255 247 228 232 237 233 231 227 227 226 206 204 216 215 214 218 232 235 216 216 220 234 239 237 244 242 232 222 196 200 217 220 214 221 217 187 188 207 211 183 179 209 230 202 162 148 161 173 174 178 180 176 149 106 92 93 96 96 90 89
238 237 240 243 251 261 266 265 266 269 274 276 278 279 278 283 285 281 279 276 272 258 246 255 240 218 250 282 280 244 212 215 221 223 226 222 223 228 208 197 206 202 204 207 219 231 206 205 206 217 237 233 224 220 221 215 201 198 210 227 218 218 226 185 176 199 206 186 180 209 229 140 128 150 170 180 185 179 187 181 122 89 92 103 101 100 95 89
232 232 236 241 250 256 263 263 260 268 272 273 282 283 274 271 273 273 266 256 254 246 241 252 257 232 235 254 250 232 212 208 212 213 216 212 213 226 212 192 198 193 196 199 204 208 186 191 208 207 220 228 218 212 219 209 203 202 198 221 223 218 231 199 167 184 200 187 181 212 218 146 136 159 170 180 189 187 190 153 101 95 99 99 97 101 98 87
228 226 231 237 246 253 259 259 258 262 266 278 285 276 259 257 259 254 234 220 213 212 219 209 208 216 266 235 216 219 221 204 200 205 206 200 203 219 211 194 199 191 193 194 189 196 190 188 209 214 209 214 214 212 222 219 210 204 198 215 220 219 231 204 166 173 195 191 193 217 199 154 158 163 171 181 184 185 125 81 87 103 105 100 101 99 89 80
227 222 225 230 241 252 253 255 257 257 261 279 280 261 235 227 230 227 208 207 213 220 232 196 188 217 274 282 210 207 219 200 192 199 198 190 190 207 205 192 197 193 197 197 185 192 200 201 208 214 209 209 213 216 228 235 228 214 197 210 224 228 226 190 166 170 192 197 201 206 163 147 158 149 162 176 156 115 80 81 88 97 98 97 95 86 78 75
226 218 217 222 234 245 247 252 256 259 265 272 274 261 227 215 223 202 187 207 221 229 247 237 206 219 253 273 237 184 199 192 187 193 191 183 185 197 194 189 196 193 200 202 191 191 204 215 213 212 213 213 215 216 228 241 246 240 212 203 222 234 220 185 170 170 190 205 200 186 147 138 145 138 133 85 76 76 79 88 92 92 93 89 85 83 80 76
230 217 211 215 225 235 242 250 252 259 264 260 261 254 243 257 312 343 231 231 228 224 240 249 241 239 249 264 268 186 194 190 183 191 184 177 185 194 183 187 200 192 194 203 198 192 203 220 216 211 216 219 219 217 225 237 245 255 241 211 218 232 225 197 176 170 181 208 199 169 143 132 132 119 90 68 70 78 82 86 88 92 91 86 83 82 81 76
230 220 210 210 218 226 234 248 251 255 255 247 248 245 249 266 294 313 278 276 255 222 226 239 242 244 244 253 251 197 218 206 188 193 185 177 187 197 189 189 200 196 193 203 204 197 201 214 214 212 214 218 221 216 222 233 235 247 251 227 216 216 225 213 171 163 171 207 205 151 131 140 140 114 78 71 80 82 83 85 85 86 85 83 81 76 75 75
224 219 209 206 214 218 228 246 253 251 245 243 248 247 252 258 272 304 281 267 271 234 220 224 228 236 236 240 224 194 221 222 203 195 184 183 189 197 202 194 197 204 199 202 208 210 208 204 207 212 212 214 221 216 218 230 226 230 240 238 221 208 223 219 148 151 172 208 206 138 124 151 153 138 113 100 98 91 92 94 85 82 86 82 78 75 70 72
219 213 205 205 206 208 228 250 251 245 239 242 249 246 249 258 267 288 285 262 261 251 230 217 213 226 227 231 225 203 215 226 223 199 180 189 193 190 204 199 198 211 204 203 209 215 215 201 198 210 211 211 220 217 213 220 222 224 230 240 237 216 221 201 147 157 194 207 182 143 147 169 171 172 149 140 129 108 98 100 98 94 92 83 79 81 78 77
213 207 199 201 199 204 224 245 250 238 228 237 242 233 229 240 245 249 259 262 255 238 214 196 190 206 207 215 215 202 213 222 227 205 177 187 200 194 203 198 197 215 207 204 211 215 216 204 196 206 210 209 219 219 208 211 221 222 218 236 248 239 232 198 155 172 212 207 178 173 191 173 182 197 166 153 145 127 114 100 105 103 91 85 84 87 87 87
201 198 196 201 197 202 210 267 288 243 220 230 230 214 204 206 203 215 238 256 254 211 191 179 169 175 182 197 197 196 211 190 210 217 180 181 200 203 209 199 191 216 211 201 212 210 208 207 198 202 209 207 215 219 204 205 218 224 208 224 242 247 244 200 155 174 213 206 202 199 208 201 191 195 166 155 149 141 133 111 107 107 99 99 96 96 95 93
191 190 197 206 203 211 225 282 301 266 228 220 189 186 177 164 185 221 226 238 212 163 168 166 162 162 170 191 190 200 221 165 185 218 182 178 196 204 212 209 197 208 213 206 210 198 197 211 202 197 209 209 209 216 209 202 211 228 211 207 228 242 251 216 165 179 207 207 213 202 207 222 197 177 162 157 157 151 141 127 127 127 120 115 109 107 99 92
188 190 199 212 214 227 240 266 275 266 286 14 159 180 162 127 184 218 228 234 148 124 139 149 162 167 175 186 185 200 221 184 181 197 175 178 200 212 217 218 207 207 216 217 219 198 187 213 214 196 205 213 206 211 214 201 200 234 229 202 216 238 258 255 204 183 192 209 223 203 201 222 211 178 169 170 173 159 141 136 138 137 133 127 122 119 108 100
186 199 206 216 222 233 240 248 252 256 273 272 174 179 159 129 197 196 201 222 160 142 146 150 164 176 181 180 180 196 210 205 185 177 171 176 198 213 219 222 218 211 215 217 224 218 192 204 221 209 207 214 206 205 216 205 196 233 243 209 207 230 255 266 223 181 192 217 225 211 200 211 222 179 168 182 185 154 136 138 143 142 138 135 134 127 114 108
188 212 215 218 225 235 238 240 244 245 256 251 195 192 183 173 219 202 190 224 178 151 151 159 166 174 183 180 177 191 204 211 188 171 174 176 190 207 209 215 222 212 210 214 216 222 209 195 209 222 210 205 205 202 214 213 198 221 243 213 194 209 237 258 210 180 204 222 225 217 202 206 221 182 162 181 173 144 134 140 145 143 141 136 132 125 117 108
202 222 222 222 233 249 251 254 271 270 255 231 200 198 195 192 220 221 211 246 204 156 156 169 175 177 183 181 178 188 199 207 192 175 179 184 185 200 206 204 209 201 203 209 199 209 221 199 197 217 201 193 208 203 206 212 198 210 230 218 200 192 208 237 214 195 205 218 223 213 197 199 218 104 124 117 124 129 129 137 141 139 139 134 128 125 118 98
216 228 228 229 235 244 246 255 283 331 296 208 201 202 203 201 210 221 233 237 151 160 166 169 179 183 181 181 182 188 195 202 194 178 179 192 188 194 209 209 206 207 203 202 193 196 222 207 196 207 190 192 218 213 197 201 194 205 220 222 210 193 191 218 218 212 214 219 231 225 202 177 105 99 120 113 113 119 124 130 133 136 137 130 127 123 107 92
228 229 234 237 236 237 242 249 264 303 246 202 200 203 206 214 214 215 236 242 157 181 187 168 176 185 183 186 186 184 193 203 196 180 175 192 194 189 206 210 208 214 208 199 197 194 212 210 193 199 190 189 216 229 214 195 192 206 215 223 220 200 194 209 213 220 220 220 236 244 232 153 133 126 116 116 117 119 123 126 126 127 126 120 115 108 97 91
235 234 241 242 237 235 234 234 238 260 250 216 208 210 200 211 215 203 230 255 200 205 207 177 174 183 185 190 190 184 193 202 191 183 181 192 199 191 196 206 208 213 209 200 202 198 209 213 187 191 196 191 206 231 224 196 195 208 206 210 219 213 205 196 208 220 227 227 223 221 60 78 112 115 113 120 121 120 124 127 128 124 120 120 114 104 98 97
240 239 238 237 237 231 219 211 204 208 231 224 216 215 204 213 218 181 271 282 264 251 238 185 173 183 183 186 191 186 194 206 188 184 191 193 200 196 192 202 207 211 211 197 189 196 209 215 188 188 202 200 199 220 227 210 197 205 208 207 212 224 223 190 200 215 234 246 211 132 102 108 117 123 134 134 125 125 129 130 128 123 120 123 117 111 107 104
246 241 235 235 233 219 203 197 191 199 221 231 224 225 225 233 252 354 331 312 315 296 274 200 176 187 183 183 190 182 189 206 190 182 194 193 199 199 193 199 207 212 214 201 192 203 213 217 187 184 204 208 196 211 234 236 215 203 208 203 207 228 231 214 199 204 208 232 201 124 135 149 144 146 149 144 140 140 139 132 125 121 124 123 117 117 112 106
256 254 256 241 224 202 189 191 192 201 221 234 237 251 260 257 285 323 317 318 317 286 271 235 188 191 186 184 187 180 186 201 189 184 193 191 197 197 194 198 204 210 211 203 202 203 212 223 187 179 196 203 192 203 231 239 226 219 205 189 205 232 224 212 212 205 202 222 203 132 142 162 165 158 157 159 157 149 141 137 131 126 125 122 117 117 113 110
269 269 244 216 203 185 178 186 196 211 227 231 233 248 262 258 268 293 306 313 303 283 279 284 233 201 193 189 183 177 186 200 192 187 194 192 188 190 194 198 199 205 206 203 204 194 205 230 199 184 190 192 188 199 219 220 214 217 208 191 211 238 226 211 210 213 208 216 212 158 152 174 162 157 168 167 159 149 145 145 137 127 126 126 122 120 115 112
261 271 164 169 176 175 174 184 201 216 222 230 235 240 254 262 267 289 306 303 298 300 274 275 263 222 198 193 186 176 188 202 196 191 195 189 179 182 192 196 193 201 208 207 205 192 197 228 223 187 184 187 192 200 215 219 207 209 209 199 203 219 233 227 217 217 218 217 210 178 160 154 87 149 174 163 154 153 148 140 130 123 126 125 120 119 117 114
238 281 127 146 162 172 174 187 207 216 224 232 244 252 260 294 309 302 300 286 272 253 243 264 277 268 231 203 188 172 183 202 196 194 195 185 184 187 192 196 193 194 204 209 203 185 184 214 223 189 183 199 205 195 209 225 219 204 210 220 215 206 213 226 223 216 219 226 218 187 148 127 53 346 176 152 148 146 135 126 120 120 125 124 121 120 117 115
295 286 161 151 163 173 181 203 205 210 230 230 241 248 243 276 293 290 293 281 260 240 237 252 269 273 272 247 210 178 179 203 199 195 198 190 194 199 193 196 195 188 193 209 200 179 163 215 218 197 193 210 207 192 200 218 219 209 212 228 230 215 210 222 229 219 223 236 229 149 99 102 15 330 159 141 135 125 116 116 118 124 128 125 124 120 115 115
236 246 160 156 171 183 197 222 211 213 230 237 249 254 242 235 266 278 286 278 257 237 229 240 254 261 267 267 250 194 179 194 203 200 203 197 194 198 198 198 198 190 187 202 195 169 143 220 216 199 198 217 216 197 195 208 215 215 212 215 229 234 223 225 236 228 225 232 209 92 87 106 348 326 138 128 118 111 112 119 124 130 131 125 123 119 115 113
216 240 150 162 187 203 215 223 212 212 228 240 244 247 253 260 263 268 277 278 261 240 235 255 259 256 254 267 277 241 197 192 197 197 207 209 187 190 202 199 197 192 185 194 186 155 159 206 206 197 190 205 215 201 195 202 211 220 210 200 211 229 226 221 226 225 243 237 213 118 99 134 343 21 122 117 114 117 121 127 130 133 132 127 123 120 115 109
284 170 144 168 193 215 236 246 241 237 254 257 247 242 255 262 253 251 258 271 271 265 272 286 286 284 279 280 279 265 235 207 188 191 210 214 175 185 209 199 189 188 188 188 168 148 179 199 192 204 200 193 202 199 192 194 204 223 222 202 204 224 235 228 203 197 235 244 226 121 116 122 114 118 118 117 123 129 130 133 136 137 131 126 123 118 112 108
286 161 150 161 185 218 245 260 264 261 273 275 260 252 260 261 262 254 246 248 261 269 273 285 290 290 292 286 268 261 248 210 184 187 205 201 167 187 216 201 186 188 188 178 154 143 195 210 197 212 215 205 205 204 204 202 199 206 219 221 212 217 234 239 209 225 225 134 64 116 136 134 137 135 128 129 134 135 136 138 139 136 128 123 119 113 109 105
283 182 159 163 173 211 231 237 244 241 256 275 268 272 272 262 260 252 238 238 255 270 270 258 263 266 277 279 267 274 263 210 181 186 195 186 170 189 212 204 190 183 174 169 164 155 190 221 209 213 221 255 339 295 231 220 207 202 210 227 229 216 223 230 190 359 272 122 89 137 144 141 151 153 143 142 139 137 141 141 139 136 130 125 120 115 112 107
261 215 162 177 177 201 220 222 236 243 258 274 263 258 267 261 255 243 252 273 263 264 267 253 260 262 258 260 263 283 268 208 175 190 193 175 170 187 207 200 180 157 158 178 182 168 176 218 212 214 226 244 277 319 284 231 212 213 210 216 235 232 225 221 173 60 42 106 129 149 149 142 150 153 147 145 142 140 142 139 138 137 128 124 121 117 114 106
243 317 329 243 223 282 256 216 248 264 267 265 254 254 262 269 275 263 263 277 267 270 272 261 264 257 249 255 257 277 283 229 170 190 190 160 167 188 202 190 164 151 178 191 187 173 198 211 199 211 230 227 220 281 316 256 221 221 217 212 224 230 238 249 206 108 90 111 131 140 139 131 140 147 144 143 139 138 140 137 140 138 129 128 126 117 110 102
252 70 334 316 358 314 276 227 193 233 235 230 238 265 285 279 278 271 271 279 286 286 267 256 259 255 270 296 260 242 306 350 91 169 122 101 154 206 207 185 167 176 192 196 179 168 197 197 179 203 224 216 206 103 27 357 222 207 234 233 215 146 39 15 120 108 101 114 126 127 126 124 137 142 137 137 137 140 143 141 141 135 126 126 121 111 108 103
266 191 292 309 343 285 266 249 233 248 229 213 236 299 308 284 285 295 297 290 287 285 269 269 284 297 340 347 310 268 354 14 12 59 101 110 139 268 241 198 180 181 192 198 180 168 189 185 153 205 224 209 192 113 75 54 47 47 24 20 39 49 41 38 62 97 117 127 124 124 131 137 143 140 137 139 142 145 145 141 138 130 119 118 114 113 114 106
293 176 88 315 301 288 279 283 279 267 262 325 311 306 296 291 292 292 295 290 275 263 256 276 298 312 349 3 339 339 27 52 30 19 71 98 82 293 265 206 184 183 191 190 173 171 186 176 145 192 217 204 171 121 98 74 51 50 7 359 42 71 63 59 54 57 105 129 132 142 149 144 142 141 140 143 147 147 144 138 132 126 124 124 120 116 110 99